STARLINK-1801, 46701

Orbit data source: Space-Track

STARLINK-1801, 46701 is a payload satellite owned by SpaceX/Seattle (US) in LEO that was launched on Sun, 18 Oct 2020 UTC via an FALCON 9 launch vehicle from the Air Force Eastern Test Range (AFETR). Payload-class satellites include a variety of spacecraft equipped with specific instruments for various scientific and technological missions. These include communications satellites like Starlink; space stations such as the ISS; scientific satellites like the Hubble; Earth observation satellites from companies like Planet Labs, Umbra, and HawkEye 360; GPS; miniature CubeSats for education and research; and military/defense satellites.

Loading next visibility...
Identifier
46701, 2020-073AH
Orbit
LEO
Country
Flag of USUS
Related business
Manufacturer
SpaceX/Seattle
Mission
Partially operational Commercial Communications
Bus & Motor
STARLINK, Unknown motor
Mass
260 kg wet, ~248 kg dry
Launch date (UTC)
2020-10-18 (5 years ago)
Launch vehicle
FALCON 9
Launch site
Air Force Eastern Test Range (AFETR)
Object type
Payload
Rocket body
Debris
Shape & HBR
Box + 1 Pan, 10.1 m
Radar Cross Section
13.562 m², Large (>1 m²)

Expand to show TLE details & history
Last TLE update: 10 hours ago

TLE from 10 hours ago
0 STARLINK-1801
1 46701U 20073AH  26095.25002315  .00238818  00000-0  12484-2 0  9991
2 46701  53.0419  65.6380 0002799 340.2144  40.5776 15.79640317  5923
Epoch: 2026-04-05T06:00Z
TLE epoch observation values (Epoch: 2026-04-05T06:00:02.000Z)
Latitude
16.51752°
Longitude
154.89019°
Altitude
330.279 km
Speed
7.714 km/s
True Right ascension
05h 13m 49s
True Declination
16° 25' 05"
Sunlit
Object was in daylight at epoch
Visualization orbit readout
Latitude
Unknown
Longitude
Unknown
Altitude
Unknown
Speed
Unknown
Apparent Right ascension
Unknown
Apparent Declination
Unknown
Sunlit
N/A
Visualization observer readout
Local Sidereal Time
21:28:35
Azimuth
Unknown
Elevation
Unknown
Doppler factor
Unknown
Orbital elements
Apogee altitude
333.618 km
Perigee altitude
329.862 km
Semi-major axis
6,709.877 km
Eccentricity
0.00028
Inclination
53.0419°
RAAN
65.638°
Arg. of periapsis
340.2144°
True anomaly
40.59847°
Mean anomaly
40.5776°
Eccentric anomaly
40.58803°
Mean motion
3.94886 °/min
Orbital period
91.17 mins
BSTAR
0.0012484
Loading maneuver chart data...
Computing Atmospheric mass density...

Documentation

Showing up to 5 results
|